�������l�o���
Date,Time,MP-1(��Sv/h),MP-2(��Sv/h),MP-3(��Sv/h),MP-4(��Sv/h),MP-5(��Sv/h),MP-6(��Sv/h),MP-7(��Sv/h),MP-8(��Sv/h),����,����(m/s),���J
2023/05/26,00:00,0.545,0.801,0.487,0.969,0.702,0.321,0.567,0.536,��쐼,4.7,��
2023/05/26,00:10,0.543,0.804,0.489,0.969,0.703,0.321,0.566,0.535,��쐼,4.2,��
2023/05/26,00:20,0.544,0.804,0.487,0.970,0.706,0.322,0.565,0.535,��쐼,4.2,��
2023/05/26,00:30,0.543,0.805,0.488,0.970,0.705,0.321,0.566,0.536,��쐼,4.9,��
2023/05/26,00:40,0.543,0.804,0.489,0.971,0.706,0.321,0.566,0.536,��쐼,4.4,��
2023/05/26,00:50,0.543,0.802,0.487,0.970,0.703,0.321,0.567,0.536,��쐼,4.8,��
2023/05/26,01:00,0.544,0.801,0.488,0.969,0.704,0.322,0.567,0.537,��쐼,4.7,��
2023/05/26,01:10,0.546,0.804,0.489,0.969,0.703,0.322,0.567,0.537,��쐼,5.5,��
2023/05/26,01:20,0.545,0.804,0.487,0.970,0.704,0.321,0.566,0.537,��쐼,5.3,��
2023/05/26,01:30,0.544,0.803,0.487,0.970,0.705,0.321,0.567,0.537,��쐼,5.7,��
2023/05/26,01:40,0.544,0.803,0.489,0.968,0.704,0.322,0.568,0.537,��쐼,7.4,��
2023/05/26,01:50,0.545,0.805,0.487,0.970,0.705,0.320,0.568,0.537,��쐼,6.5,��
2023/05/26,02:00,0.544,0.804,0.490,0.969,0.705,0.321,0.567,0.537,��쐼,5.7,��
2023/05/26,02:10,0.544,0.804,0.489,0.969,0.705,0.322,0.566,0.537,��,5.5,��
2023/05/26,02:20,0.545,0.803,0.488,0.970,0.705,0.322,0.566,0.537,��,5.8,��
2023/05/26,02:30,0.543,0.805,0.488,0.969,0.705,0.322,0.567,0.538,��,6.9,��
2023/05/26,02:40,0.545,0.803,0.488,0.970,0.705,0.321,0.567,0.539,��쐼,6.5,��
2023/05/26,02:50,0.545,0.803,0.488,0.969,0.707,0.322,0.567,0.537,��,6.6,��
2023/05/26,03:00,0.544,0.804,0.488,0.969,0.705,0.321,0.566,0.538,��,6.6,��
2023/05/26,03:10,0.544,0.806,0.487,0.968,0.704,0.321,0.567,0.537,��쐼,7.3,��
2023/05/26,03:20,0.545,0.804,0.489,0.969,0.706,0.321,0.567,0.536,��쐼,6.6,��
2023/05/26,03:30,0.545,0.803,0.487,0.970,0.705,0.321,0.568,0.536,��,5.8,��
2023/05/26,03:40,0.544,0.804,0.487,0.968,0.706,0.320,0.567,0.536,��,5.9,��
2023/05/26,03:50,0.544,0.804,0.489,0.970,0.704,0.321,0.567,0.537,��,6.1,��
2023/05/26,04:00,0.547,0.803,0.488,0.971,0.703,0.322,0.565,0.537,��,6.2,��
2023/05/26,04:10,0.544,0.804,0.488,0.970,0.706,0.320,0.566,0.536,��,7.3,��
2023/05/26,04:20,0.545,0.803,0.488,0.972,0.706,0.320,0.567,0.535,��,7.2,��
2023/05/26,04:30,0.544,0.804,0.488,0.969,0.705,0.320,0.567,0.536,��,8.2,��
2023/05/26,04:40,0.545,0.804,0.488,0.971,0.704,0.321,0.566,0.537,��,8.1,��
2023/05/26,04:50,0.545,0.805,0.488,0.971,0.705,0.322,0.568,0.536,��,7.6,��
2023/05/26,05:00,0.543,0.804,0.488,0.969,0.706,0.321,0.566,0.537,��,8.1,��
2023/05/26,05:10,0.545,0.804,0.488,0.969,0.706,0.322,0.568,0.536,��,8.7,��
2023/05/26,05:20,0.545,0.803,0.488,0.970,0.704,0.321,0.568,0.536,��,8.4,��
2023/05/26,05:30,0.544,0.803,0.488,0.971,0.705,0.322,0.568,0.537,��,9.5,��
2023/05/26,05:40,0.545,0.807,0.488,0.970,0.704,0.321,0.569,0.536,��,8.9,��
2023/05/26,05:50,0.543,0.805,0.489,0.970,0.705,0.321,0.568,0.536,��,8.2,��
2023/05/26,06:00,0.544,0.803,0.490,0.969,0.706,0.322,0.569,0.536,��,8.1,��
2023/05/26,06:10,0.547,0.805,0.489,0.967,0.704,0.321,0.569,0.536,��,8.2,��
2023/05/26,06:20,0.545,0.805,0.488,0.971,0.705,0.322,0.570,0.536,��,7.9,��
2023/05/26,06:30,0.545,0.802,0.488,0.971,0.706,0.321,0.569,0.538,��,7.8,��
2023/05/26,06:40,0.544,0.805,0.489,0.970,0.703,0.321,0.570,0.536,��,6.8,��
2023/05/26,06:50,0.544,0.804,0.487,0.968,0.703,0.320,0.570,0.536,��,5.8,��
2023/05/26,07:00,0.546,0.802,0.487,0.970,0.705,0.319,0.570,0.536,��,5.8,��
2023/05/26,07:10,0.543,0.804,0.488,0.970,0.706,0.319,0.571,0.538,��,5.1,��
2023/05/26,07:20,0.543,0.804,0.488,0.971,0.704,0.320,0.568,0.536,��,3.9,��
2023/05/26,07:30,0.543,0.803,0.487,0.970,0.704,0.319,0.569,0.536,��,3.9,��
2023/05/26,07:40,0.542,0.803,0.488,0.972,0.703,0.320,0.570,0.536,��쓌,5.6,��
2023/05/26,07:50,0.543,0.803,0.488,0.974,0.706,0.319,0.567,0.535,��쓌,6.7,��
2023/05/26,08:00,0.543,0.803,0.489,0.972,0.706,0.319,0.566,0.536,��,7.6,��
2023/05/26,08:10,0.544,0.802,0.486,0.970,0.706,0.320,0.566,0.534,��쓌,7.7,��
2023/05/26,08:20,0.543,0.803,0.486,0.971,0.706,0.320,0.567,0.532,��쓌,8.2,��
2023/05/26,08:30,0.543,0.802,0.487,0.968,0.705,0.318,0.567,0.533,��쓌,7.8,��
2023/05/26,08:40,0.544,0.801,0.487,0.971,0.705,0.319,0.567,0.533,��쓌,9.5,��
2023/05/26,08:50,0.543,0.801,0.488,0.971,0.705,0.318,0.567,0.534,��쓌,10.8,��
2023/05/26,09:00,0.544,0.803,0.488,0.972,0.706,0.321,0.567,0.534,��쓌,9.6,��
2023/05/26,09:10,0.543,0.801,0.487,0.970,0.704,0.319,0.568,0.534,��쓌,10.5,��
2023/05/26,09:20,0.543,0.803,0.487,0.970,0.703,0.320,0.567,0.534,��쓌,12.8,��
2023/05/26,09:30,0.543,0.802,0.486,0.969,0.705,0.320,0.568,0.536,��쓌,12.0,��
2023/05/26,09:40,0.545,0.802,0.488,0.974,0.704,0.319,0.567,0.535,��,10.5,��
2023/05/26,09:50,0.544,0.803,0.486,0.970,0.705,0.320,0.567,0.535,��,8.9,��
2023/05/26,10:00,0.544,0.802,0.484,0.973,0.705,0.320,0.566,0.536,��,10.2,��
2023/05/26,10:10,0.544,0.803,0.484,0.969,0.705,0.320,0.566,0.536,��쓌,12.7,��
2023/05/26,10:20,0.544,0.803,0.485,0.973,0.706,0.319,0.566,0.536,��쓌,10.8,��
2023/05/26,10:30,0.543,0.802,0.488,0.973,0.707,0.319,0.566,0.534,��쓌,13.5,��
2023/05/26,10:40,0.544,0.801,0.489,0.972,0.704,0.321,0.567,0.534,��쓌,11.6,��
2023/05/26,10:50,0.544,0.802,0.486,0.974,0.706,0.321,0.566,0.535,��쓌,11.7,��
2023/05/26,11:00,0.544,0.804,0.487,0.971,0.707,0.319,0.567,0.534,��쓌,10.6,��
2023/05/26,11:10,0.545,0.805,0.485,0.971,0.705,0.320,0.566,0.534,��쓌,10.7,��
2023/05/26,11:20,0.546,0.804,0.486,0.971,0.705,0.320,0.566,0.534,��쓌,10.5,��
2023/05/26,11:30,0.544,0.802,0.486,0.972,0.706,0.321,0.566,0.534,��쓌,8.8,��
2023/05/26,11:40,0.544,0.803,0.487,0.972,0.707,0.320,0.566,0.535,��쓌,10.2,��
2023/05/26,11:50,0.542,0.805,0.487,0.970,0.706,0.319,0.568,0.534,��쓌,10.3,��
2023/05/26,12:00,0.544,0.803,0.487,0.975,0.707,0.320,0.568,0.535,��쓌,11.6,��
2023/05/26,12:10,0.545,0.806,0.488,0.971,0.706,0.320,0.567,0.534,��,11.1,��
2023/05/26,12:20,0.544,0.806,0.489,0.970,0.706,0.319,0.566,0.536,��,11.3,��
2023/05/26,12:30,0.545,0.806,0.488,0.971,0.706,0.319,0.566,0.535,��쓌,11.9,��
2023/05/26,12:40,0.545,0.806,0.488,0.970,0.705,0.318,0.567,0.537,��쓌,11.6,��
2023/05/26,12:50,0.545,0.804,0.489,0.970,0.707,0.318,0.567,0.537,��쓌,11.4,��
2023/05/26,13:00,0.546,0.805,0.488,0.969,0.707,0.318,0.567,0.536,��쓌,9.7,��
2023/05/26,13:10,0.545,0.806,0.487,0.972,0.709,0.321,0.566,0.535,��쓌,13.0,��
2023/05/26,13:20,0.547,0.805,0.487,0.972,0.709,0.320,0.565,0.535,��쓌,12.8,��
2023/05/26,13:30,0.547,0.804,0.488,0.972,0.707,0.320,0.567,0.534,��쓌,13.1,��
2023/05/26,13:40,0.547,0.805,0.488,0.971,0.708,0.320,0.565,0.536,��쓌,13.3,��
2023/05/26,13:50,0.547,0.804,0.489,0.973,0.709,0.319,0.567,0.534,��,13.6,��
2023/05/26,14:00,0.545,0.805,0.489,0.972,0.707,0.321,0.566,0.537,��쓌,13.8,��
2023/05/26,14:10,0.546,0.805,0.487,0.971,0.709,0.320,0.567,0.535,��쓌,13.5,��
2023/05/26,14:20,0.547,0.806,0.486,0.973,0.708,0.321,0.567,0.537,��쓌,12.4,��
2023/05/26,14:30,0.545,0.805,0.489,0.972,0.708,0.321,0.565,0.534,��쓌,11.6,��
2023/05/26,14:40,0.547,0.807,0.490,0.974,0.709,0.321,0.565,0.536,��쓌,11.3,��
2023/05/26,14:50,0.548,0.806,0.488,0.971,0.708,0.321,0.567,0.536,��쓌,11.7,��
2023/05/26,15:00,0.546,0.806,0.489,0.975,0.710,0.320,0.566,0.536,��쓌,11.8,��
2023/05/26,15:10,0.547,0.805,0.489,0.972,0.709,0.321,0.566,0.535,��,12.2,��
2023/05/26,15:20,0.546,0.807,0.490,0.974,0.708,0.320,0.569,0.535,��쓌,12.4,��
2023/05/26,15:30,0.546,0.808,0.489,0.974,0.710,0.321,0.565,0.536,��,9.9,��
2023/05/26,15:40,0.546,0.808,0.488,0.976,0.708,0.321,0.568,0.536,��쓌,11.0,��
2023/05/26,15:50,0.546,0.807,0.487,0.975,0.707,0.321,0.567,0.536,��,10.5,��
2023/05/26,16:00,0.547,0.807,0.488,0.976,0.709,0.321,0.566,0.535,��,11.0,��
2023/05/26,16:10,0.547,0.808,0.488,0.974,0.707,0.320,0.567,0.535,��쓌,10.3,��
2023/05/26,16:20,0.546,0.807,0.487,0.975,0.711,0.321,0.566,0.535,��,9.5,��
2023/05/26,16:30,0.546,0.807,0.488,0.976,0.709,0.320,0.568,0.535,��,8.9,��
2023/05/26,16:40,0.547,0.805,0.487,0.976,0.708,0.320,0.566,0.535,��,10.7,��
2023/05/26,16:50,0.546,0.806,0.488,0.974,0.710,0.321,0.566,0.536,��,10.5,��
2023/05/26,17:00,0.546,0.807,0.488,0.975,0.707,0.319,0.567,0.536,��,9.8,��
2023/05/26,17:10,0.547,0.806,0.489,0.976,0.710,0.321,0.566,0.535,��쓌,9.8,��
2023/05/26,17:20,0.546,0.805,0.489,0.977,0.708,0.320,0.566,0.537,��,8.6,��
2023/05/26,17:30,0.547,0.807,0.489,0.977,0.708,0.321,0.567,0.535,��,6.5,��
2023/05/26,17:40,0.546,0.807,0.489,0.976,0.709,0.321,0.566,0.535,��,6.7,��
2023/05/26,17:50,0.547,0.807,0.489,0.976,0.709,0.319,0.566,0.535,��,8.1,��
2023/05/26,18:00,0.544,0.807,0.490,0.976,0.709,0.319,0.566,0.536,��,8.3,��
2023/05/26,18:10,0.545,0.808,0.489,0.977,0.709,0.321,0.566,0.537,��,8.3,��
2023/05/26,18:20,0.546,0.808,0.489,0.978,0.709,0.320,0.566,0.538,��,8.2,��
2023/05/26,18:30,0.548,0.809,0.489,0.977,0.709,0.321,0.568,0.537,��,7.8,��
2023/05/26,18:40,0.549,0.808,0.489,0.978,0.709,0.321,0.566,0.538,��,7.6,��
2023/05/26,18:50,0.546,0.808,0.490,0.977,0.709,0.321,0.566,0.538,��,7.5,�L
2023/05/26,19:00,0.546,0.808,0.491,0.977,0.710,0.321,0.567,0.539,��,6.1,��
2023/05/26,19:10,0.547,0.809,0.490,0.976,0.711,0.320,0.566,0.537,��,6.8,��
2023/05/26,19:20,0.549,0.809,0.490,0.976,0.710,0.320,0.567,0.539,��,6.2,��
2023/05/26,19:30,0.547,0.812,0.492,0.977,0.709,0.321,0.567,0.539,��,6.4,��
2023/05/26,19:40,0.548,0.811,0.490,0.977,0.709,0.321,0.567,0.540,��,7.0,��
2023/05/26,19:50,0.548,0.812,0.491,0.978,0.711,0.321,0.566,0.537,��,5.6,��
2023/05/26,20:00,0.547,0.810,0.491,0.976,0.711,0.321,0.566,0.538,��,4.9,��
2023/05/26,20:10,0.547,0.811,0.490,0.978,0.712,0.321,0.568,0.537,��,5.7,��
2023/05/26,20:20,0.547,0.813,0.491,0.977,0.711,0.321,0.567,0.539,��,5.5,��
2023/05/26,20:30,0.548,0.811,0.490,0.979,0.711,0.321,0.568,0.539,��,6.8,��
2023/05/26,20:40,0.550,0.810,0.491,0.976,0.712,0.322,0.567,0.537,��,6.8,�L
2023/05/26,20:50,0.548,0.812,0.490,0.975,0.710,0.321,0.567,0.538,��,6.9,�L
2023/05/26,21:00,0.548,0.810,0.490,0.977,0.711,0.322,0.568,0.537,��,7.3,�L
2023/05/26,21:10,0.549,0.812,0.490,0.977,0.711,0.322,0.567,0.539,��,7.0,�L
2023/05/26,21:20,0.548,0.812,0.491,0.979,0.711,0.321,0.566,0.538,��,6.0,��
2023/05/26,21:30,0.547,0.812,0.492,0.978,0.713,0.321,0.569,0.538,��,5.5,��
2023/05/26,21:40,0.549,0.813,0.491,0.976,0.710,0.321,0.569,0.539,��,6.4,��
2023/05/26,21:50,0.547,0.812,0.492,0.976,0.713,0.323,0.569,0.537,��,5.6,��
2023/05/26,22:00,0.548,0.811,0.491,0.978,0.712,0.322,0.568,0.539,��,6.7,��
2023/05/26,22:10,0.549,0.811,0.491,0.977,0.711,0.321,0.570,0.538,��,7.1,��
2023/05/26,22:20,0.548,0.811,0.491,0.975,0.711,0.321,0.570,0.539,��,6.8,��
2023/05/26,22:30,0.548,0.812,0.490,0.978,0.711,0.321,0.569,0.538,��,7.6,��
2023/05/26,22:40,0.550,0.812,0.490,0.977,0.713,0.321,0.569,0.539,��,7.6,��
2023/05/26,22:50,0.552,0.812,0.490,0.977,0.711,0.322,0.569,0.540,��,6.8,��
2023/05/26,23:00,0.549,0.812,0.491,0.978,0.712,0.321,0.571,0.540,��,5.6,��
2023/05/26,23:10,0.549,0.812,0.491,0.980,0.711,0.321,0.570,0.539,��,4.4,��
2023/05/26,23:20,0.548,0.812,0.492,0.977,0.711,0.322,0.569,0.537,��,4.0,��
2023/05/26,23:30,0.549,0.810,0.491,0.977,0.709,0.322,0.572,0.537,��,4.3,��
2023/05/26,23:40,0.549,0.811,0.493,0.977,0.713,0.321,0.569,0.540,��,2.9,��
2023/05/26,23:50,0.549,0.811,0.490,0.975,0.712,0.322,0.570,0.539,��,3.3,��
